Location: Axtheid
(49.6213°N, 11.8205°E)
Time: 13:53:13
(UTC+00:00)

Cosmos 405 - Pass Details

Date: 24 January 2021
Orbit: 448 x 462 km, 81.3° (Epoch: 25 February)

Event Time Altitude Azimuth Distance (km) Brightness Sun altitude
Rises 17:21:27 0° 355° (N) 2,509 6.6 -13.8°
Reaches altitude 10° 17:23:42 10° 6° (N) 1,627 5.5 -14.2°
Maximum altitude 17:26:56 32° 71° (ENE) 812 3.6 -14.7°
Enters shadow 17:28:21 24° 115° (ESE) 1,016 4.2 -14.9°
